ARIANE 2 DEB, 28567

Orbit data source: Space-Track

ARIANE 2 DEB, 28567 is space debris in HEO originally from a launch on Fri, 27 Jan 1989 UTC launched from the French Guiana (FRGUI). Debris objects in space refer to the collection of defunct objects orbiting the Earth. Examples of debris include non-operational satellites, rocket bodies, and fragments generated from explosions, collisions, or faulty payload assembly.

Loading next visibility...
Identifier
28567, 1989-006AJ
Orbit
HEO
Country
Flag of FRFR
Related business
Manufacturer
EADS/LV
Mission
Spacecraft
Bus & Motor
Unknown
Mass
Unknown
Launch date (UTC)
1989-01-27 (37 years ago)
Launch vehicle
Unknown
Launch site
French Guiana (FRGUI)
Object type
Payload
Rocket body
Debris
Shape & HBR
Unknown shape, 1.1 m
Radar Cross Section
Medium (>0.1 m² and <1 m²)

Expand to show TLE details & history
Last TLE update: 1 day ago

TLE from 1 day ago
0 ARIANE 2 DEB
1 28567U 89006AJ  25301.40861809  .00000444  00000-0  38133-2 0  9990
2 28567   7.9688  57.9300 7094407 120.2013 327.3393  2.37974759114966
Epoch: 2025-10-28T09:48Z
TLE epoch observation values (Epoch: 2025-10-28T09:48:24.602Z)
Latitude
0.00017°
Longitude
-126.20415°
Altitude
11,944.544 km
Speed
5.166 km/s
True Right ascension
03h 51m 34s
True Declination
0° 00' 01"
Sunlit
Object was in daylight at epoch
Visualization orbit readout
Latitude
Unknown
Longitude
Unknown
Altitude
Unknown
Speed
Unknown
Apparent Right ascension
Unknown
Apparent Declination
Unknown
Sunlit
N/A
Visualization observer readout
Local Sidereal Time
16:05:19
Azimuth
Unknown
Elevation
Unknown
Doppler factor
Unknown
Orbital elements
Apogee altitude
34,141.298 km
Perigee altitude
509.086 km
Semi-major axis
23,703.329 km
Eccentricity
0.70944
Inclination
7.9688°
RAAN
57.93°
Arg. of periapsis
120.2013°
True anomaly
239.94327°
Mean anomaly
327.3393°
Eccentric anomaly
288.87775°
Mean motion
0.59474 °/min
Orbital period
605.3 mins
BSTAR
0.0038133
Loading maneuver chart data...
Computing Atmospheric mass density...
Loading historical data...
Loading historical data...
Loading historical data...
Loading historical data...
Loading historical data...
Loading historical data...
Loading historical data...

Documentation

Showing up to 5 results
|